TimeEST,TemperatureF,Dew PointF,Humidity,Sea Level PressureIn,VisibilityMPH,Wind Direction,Wind SpeedMPH,Gust SpeedMPH,PrecipitationIn,Events,Conditions,WindDirDegrees,DateUTC
12:15 AM,33.8,26.6,75,29.96,10.0,Calm,Calm,-,N/A,,Overcast,0,2013-02-06 05:15:00
12:35 AM,33.8,28.4,81,29.96,10.0,Calm,Calm,-,N/A,,Overcast,0,2013-02-06 05:35:00
12:55 AM,32.0,26.6,80,29.96,10.0,Calm,Calm,-,N/A,,Overcast,0,2013-02-06 05:55:00
1:15 AM,32.0,26.6,80,29.96,10.0,Calm,Calm,-,N/A,,Overcast,0,2013-02-06 06:15:00
1:35 AM,32.0,26.6,80,29.95,10.0,Calm,Calm,-,N/A,,Overcast,0,2013-02-06 06:35:00
1:55 AM,32.0,24.8,75,29.96,10.0,Calm,Calm,-,N/A,,Mostly Cloudy,0,2013-02-06 06:55:00
2:15 AM,32.0,26.6,80,29.96,10.0,Calm,Calm,-,N/A,,Overcast,0,2013-02-06 07:15:00
2:35 AM,30.2,26.6,86,29.96,10.0,Calm,Calm,-,N/A,,Overcast,0,2013-02-06 07:35:00
3:15 AM,30.2,26.6,86,29.97,10.0,Calm,Calm,-,N/A,,Overcast,0,2013-02-06 08:15:00
3:35 AM,30.2,26.6,86,29.97,10.0,Calm,Calm,-,N/A,,Overcast,0,2013-02-06 08:35:00
3:55 AM,30.2,26.6,86,29.98,10.0,Calm,Calm,-,N/A,,Overcast,0,2013-02-06 08:55:00
4:15 AM,30.2,26.6,86,29.99,10.0,Calm,Calm,-,N/A,,Overcast,0,2013-02-06 09:15:00
4:35 AM,30.2,26.6,86,30.00,10.0,West,3.5,-,N/A,,Overcast,270,2013-02-06 09:35:00
4:55 AM,30.2,28.4,93,30.01,10.0,Calm,Calm,-,N/A,,Overcast,0,2013-02-06 09:55:00
5:15 AM,33.8,28.4,81,30.03,10.0,Calm,Calm,-,N/A,,Overcast,0,2013-02-06 10:15:00
5:35 AM,32.0,26.6,80,30.04,10.0,Calm,Calm,-,N/A,,Overcast,0,2013-02-06 10:35:00
5:55 AM,32.0,28.4,87,30.05,10.0,Calm,Calm,-,N/A,,Overcast,0,2013-02-06 10:55:00
6:15 AM,30.2,26.6,86,30.06,10.0,NW,5.8,-,N/A,,Mostly Cloudy,310,2013-02-06 11:15:00
6:35 AM,32.0,26.6,80,30.06,10.0,NW,6.9,-,N/A,,Mostly Cloudy,320,2013-02-06 11:35:00
6:55 AM,32.0,26.6,80,30.08,10.0,NNW,5.8,-,N/A,,Partly Cloudy,330,2013-02-06 11:55:00
7:15 AM,35.6,28.4,75,30.10,10.0,NNW,8.1,-,N/A,,Mostly Cloudy,330,2013-02-06 12:15:00
7:35 AM,35.6,28.4,75,30.11,10.0,North,3.5,-,N/A,,Overcast,350,2013-02-06 12:35:00
7:55 AM,35.6,26.6,70,30.13,10.0,NNW,5.8,-,N/A,,Overcast,340,2013-02-06 12:55:00
8:35 AM,35.6,26.6,70,30.16,10.0,NW,11.5,17.3,N/A,,Overcast,320,2013-02-06 13:35:00
8:55 AM,35.6,26.6,70,30.16,10.0,NNW,6.9,-,N/A,,Overcast,340,2013-02-06 13:55:00
9:15 AM,37.4,26.6,65,30.16,10.0,NNW,9.2,-,N/A,,Overcast,340,2013-02-06 14:15:00
9:35 AM,37.4,26.6,65,30.17,10.0,NW,9.2,-,N/A,,Overcast,320,2013-02-06 14:35:00
9:55 AM,37.4,26.6,65,30.18,10.0,North,4.6,-,N/A,,Overcast,360,2013-02-06 14:55:00
10:35 AM,37.4,24.8,60,30.20,10.0,NW,4.6,-,N/A,,Overcast,320,2013-02-06 15:35:00
10:55 AM,39.2,24.8,56,30.21,10.0,WNW,9.2,17.3,N/A,,Overcast,300,2013-02-06 15:55:00
11:15 AM,41.0,24.8,53,30.21,10.0,NW,18.4,24.2,N/A,,Mostly Cloudy,310,2013-02-06 16:15:00
11:35 AM,39.2,23.0,52,30.21,10.0,NW,18.4,26.5,N/A,,Mostly Cloudy,320,2013-02-06 16:35:00
12:15 PM,39.2,21.2,49,30.22,10.0,NW,10.4,20.7,N/A,,Overcast,310,2013-02-06 17:15:00
12:35 PM,39.2,23.0,52,30.21,10.0,NW,12.7,24.2,N/A,,Overcast,320,2013-02-06 17:35:00
12:55 PM,39.2,23.0,52,30.21,10.0,NW,13.8,19.6,N/A,,Overcast,320,2013-02-06 17:55:00
1:15 PM,39.2,23.0,52,30.22,10.0,WNW,15.0,23.0,N/A,,Overcast,300,2013-02-06 18:15:00
1:35 PM,39.2,23.0,52,30.22,10.0,NW,15.0,20.7,N/A,,Mostly Cloudy,310,2013-02-06 18:35:00
1:55 PM,41.0,24.8,53,30.22,10.0,NW,15.0,25.3,N/A,,Mostly Cloudy,320,2013-02-06 18:55:00
2:15 PM,42.8,24.8,49,30.22,10.0,NNW,11.5,16.1,N/A,,Scattered Clouds,340,2013-02-06 19:15:00
2:35 PM,41.0,23.0,49,30.22,10.0,WNW,11.5,18.4,N/A,,Clear,300,2013-02-06 19:35:00
2:55 PM,39.2,23.0,52,30.22,10.0,NW,15.0,21.9,N/A,,Clear,320,2013-02-06 19:55:00
3:15 PM,41.0,21.2,45,30.23,10.0,NW,17.3,24.2,N/A,,Clear,320,2013-02-06 20:15:00
3:35 PM,41.0,23.0,49,30.23,10.0,NNW,8.1,16.1,N/A,,Clear,330,2013-02-06 20:35:00
3:55 PM,39.2,21.2,49,30.23,10.0,North,10.4,19.6,N/A,,Clear,350,2013-02-06 20:55:00
4:15 PM,39.2,23.0,52,30.24,10.0,North,6.9,-,N/A,,Clear,350,2013-02-06 21:15:00
4:35 PM,39.2,23.0,52,30.25,10.0,North,8.1,-,N/A,,Clear,350,2013-02-06 21:35:00
4:55 PM,39.2,23.0,52,30.26,10.0,North,4.6,-,N/A,,Clear,350,2013-02-06 21:55:00
5:15 PM,37.4,21.2,52,30.27,10.0,NNW,5.8,-,N/A,,Clear,340,2013-02-06 22:15:00
5:35 PM,35.6,21.2,56,30.27,10.0,NNW,8.1,-,N/A,,Clear,330,2013-02-06 22:35:00
5:55 PM,35.6,21.2,56,30.27,10.0,NNW,9.2,-,N/A,,Clear,330,2013-02-06 22:55:00
6:15 PM,35.6,21.2,56,30.28,10.0,North,4.6,-,N/A,,Clear,360,2013-02-06 23:15:00
6:35 PM,33.8,21.2,60,30.29,10.0,North,6.9,-,N/A,,Clear,350,2013-02-06 23:35:00
6:55 PM,33.8,21.2,60,30.29,10.0,North,4.6,-,N/A,,Clear,350,2013-02-06 23:55:00
7:15 PM,33.8,21.2,60,30.30,10.0,Calm,Calm,-,N/A,,Clear,0,2013-02-07 00:15:00
7:35 PM,33.8,19.4,56,30.31,10.0,NNW,4.6,-,N/A,,Clear,340,2013-02-07 00:35:00
7:55 PM,33.8,19.4,56,30.32,10.0,NNW,8.1,-,N/A,,Clear,330,2013-02-07 00:55:00
8:15 PM,33.8,19.4,56,30.32,10.0,NNW,6.9,-,N/A,,Clear,340,2013-02-07 01:15:00
8:35 PM,33.8,19.4,56,30.32,10.0,North,4.6,-,N/A,,Clear,350,2013-02-07 01:35:00
8:55 PM,32.0,19.4,60,30.33,10.0,North,3.5,-,N/A,,Clear,10,2013-02-07 01:55:00
9:15 PM,30.2,19.4,64,30.34,10.0,NNE,5.8,-,N/A,,Clear,30,2013-02-07 02:15:00
9:35 PM,30.2,19.4,64,30.34,10.0,NNE,4.6,-,N/A,,Clear,20,2013-02-07 02:35:00
9:55 PM,30.2,19.4,64,30.35,10.0,NNE,3.5,-,N/A,,Clear,20,2013-02-07 02:55:00
10:15 PM,30.2,19.4,64,30.35,10.0,NNE,3.5,-,N/A,,Clear,20,2013-02-07 03:15:00
10:35 PM,30.2,19.4,64,30.36,10.0,NNE,3.5,-,N/A,,Clear,20,2013-02-07 03:35:00
10:55 PM,30.2,19.4,64,30.36,10.0,NE,4.6,-,N/A,,Clear,40,2013-02-07 03:55:00
11:15 PM,30.2,17.6,60,30.35,10.0,NE,3.5,-,N/A,,Clear,50,2013-02-07 04:15:00
11:35 PM,30.2,17.6,60,30.35,10.0,East,3.5,-,N/A,,Clear,100,2013-02-07 04:35:00
11:55 PM,26.6,17.6,69,30.36,10.0,SSE,3.5,-,N/A,,Clear,160,2013-02-07 04:55:00